This demonstration page uses our WeatherBlox Daily Observations layout. Learn more.

Left ArrowRight Arrow

Hourly Observations for September 12, 2020

Temp ( °F °C ) Dew Point ( °F °C ) Humidity (%) Winds ( mph kmh ) Pressure ( in mb ) Visibility ( mi km ) Precip ( " mm )
12:51 am 00:51 Clear 63 17.2 50 10 63 63 SSE 3 6 29.91 1013 10 16.0934 0 0
1:51 am 01:51 Clear 61 16.1 49 9.4 65 65 Calm 29.91 1013 10 16.0934 0 0
2:51 am 02:51 Clear 61 16.1 49 9.4 65 65 Calm 29.91 1013 10 16.0934 0 0
3:51 am 03:51 Clear 59 15 48 8.9 67 67 Calm 29.91 1013 10 16.0934 0 0
4:51 am 04:51 Clear 59 15 49 9.4 69 69 Calm 29.92 1013 10 16.0934 0 0
5:51 am 05:51 Clear 59 15 50 10 72 72 Calm 29.93 1014 10 16.0934 0 0
6:51 am 06:51 Sunny 59 15 49 9.4 69 69 Calm 29.95 1014 10 16.0934 0 0
7:51 am 07:51 Sunny 68 20 49 9.4 51 51 Calm 29.94 1014 10 16.0934 0 0
8:51 am 08:51 Sunny 73 22.8 49 9.4 43 43 SE 9 15 29.95 1014 10 16.0934 0 0
9:51 am 09:51 Sunny 76 24.4 51 10.6 42 42 SSE 12 19 29.96 1014 10 16.0934 0 0
10:51 am 10:51 Sunny 77 25 56 13.3 48 48 SE 9 15 29.94 1014 10 16.0934 0 0
11:51 am 11:51 Sunny 81 27.2 55 12.8 41 41 SSE 7 11 29.91 1013 10 16.0934 0 0
12:51 pm 12:51 Sunny 83 28.3 54 12.2 37 37 SE 9 15 29.88 1012 10 16.0934 0 0
1:51 pm 13:51 Sunny 84 28.9 54 12.2 36 36 VRB 7 11 29.86 1011 10 16.0934 0 0
2:51 pm 14:51 Sunny 84 28.9 53 11.7 34 34 Calm 29.84 1011 10 16.0934 0 0
3:51 pm 15:51 Sunny 85 29.4 51 10.6 31 31 SSW 8 13 29.83 1010 10 16.0934 0 0
4:51 pm 16:51 Sunny 85 29.4 49 9.4 29 29 SSW 8 13 29.82 1010 10 16.0934 0 0
5:51 pm 17:51 Sunny 83 28.3 49 9.4 31 31 SSW 5 7 29.83 1010 10 16.0934 0 0
6:51 pm 18:51 Clear 78 25.6 46 7.8 32 32 S 3 6 29.84 1011 10 16.0934 0 0
7:51 pm 19:51 Clear 73 22.8 45 7.2 37 37 E 3 6 29.85 1011 10 16.0934 0 0
8:51 pm 20:51 Clear 71 21.7 45 7.2 39 39 ESE 7 11 29.88 1012 10 16.0934 0 0
9:51 pm 21:51 Clear 70 21.1 45 7.2 41 41 ESE 6 9 29.89 1012 10 16.0934 0 0
10:51 pm 22:51 Clear 70 21.1 45 7.2 41 41 SE 8 13 29.9 1013 10 16.0934 0 0
11:51 pm 23:51 Clear 70 21.1 48 8.9 46 46 ESE 9 15 29.9 1013 10 16.0934 0 0

Powered by AerisWeather